iso_date,epoch_date,Year,Hour,Min,DOY,POS_DOY,Lat,Lon,BP,Ts,Ta,has_bp,has_ts,has_ta,BuoyID,Buoy_Type,Buoy_Owner,Logistics,Hemisphere
2020-09-02T12:00:00Z,1599048000,2020,12,0,246.5,246.5,88.4421,117.6414,-999.00,-999.00,-999.0,no,no,no,300534061800900,unknown,unknown,unknown,North
2020-09-02T12:29:57Z,1599049797,2020,12,30,246.5208,246.5208,88.4447,117.6718,-999.00,-999.00,-999.0,no,no,no,300534061800900,unknown,unknown,unknown,North
2020-09-02T13:00:02Z,1599051603,2020,13,0,246.5417,246.5417,88.4474,117.7047,-999.00,-999.00,-999.0,no,no,no,300534061800900,unknown,unknown,unknown,North
2020-09-02T13:30:00Z,1599053400,2020,13,30,246.5625,246.5625,88.4502,117.7417,-999.00,-999.00,-999.0,no,no,no,300534061800900,unknown,unknown,unknown,North
2020-09-02T13:59:57Z,1599055197,2020,14,0,246.5833,246.5833,88.4532,117.7838,-999.00,-999.00,-999.0,no,no,no,300534061800900,unknown,unknown,unknown,North
2020-09-02T14:30:02Z,1599057003,2020,14,30,246.6042,246.6042,88.4562,117.8304,-999.00,-999.00,-999.0,no,no,no,300534061800900,unknown,unknown,unknown,North
2020-09-02T15:00:00Z,1599058800,2020,15,0,246.625,246.625,88.4593,117.8834,-999.00,-999.00,-999.0,no,no,no,300534061800900,unknown,unknown,unknown,North
2020-09-02T15:29:57Z,1599060597,2020,15,30,246.6458,246.6458,88.4624,117.9428,-999.00,-999.00,-999.0,no,no,no,300534061800900,unknown,unknown,unknown,North
2020-09-02T16:00:02Z,1599062403,2020,16,0,246.6667,246.6667,88.4655,118.0083,-999.00,-999.00,-999.0,no,no,no,300534061800900,unknown,unknown,unknown,North
2020-09-02T16:30:00Z,1599064200,2020,16,30,246.6875,246.6875,88.4684,118.0772,-999.00,-999.00,-999.0,no,no,no,300534061800900,unknown,unknown,unknown,North
2020-09-02T16:59:57Z,1599065997,2020,17,0,246.7083,246.7083,88.4713,118.1506,-999.00,-999.00,-999.0,no,no,no,300534061800900,unknown,unknown,unknown,North
2020-09-02T17:30:02Z,1599067803,2020,17,30,246.7292,246.7292,88.4742,118.222,-999.00,-999.00,-999.0,no,no,no,300534061800900,unknown,unknown,unknown,North
2020-09-02T18:00:00Z,1599069600,2020,18,0,246.75,246.75,88.4771,118.2927,-999.00,-999.00,-999.0,no,no,no,300534061800900,unknown,unknown,unknown,North
2020-09-02T18:29:57Z,1599071397,2020,18,30,246.7708,246.7708,88.4799,118.3627,-999.00,-999.00,-999.0,no,no,no,300534061800900,unknown,unknown,unknown,North
2020-09-02T19:00:02Z,1599073203,2020,19,0,246.7917,246.7917,88.4827,118.4285,-999.00,-999.00,-999.0,no,no,no,300534061800900,unknown,unknown,unknown,North
2020-09-02T19:30:00Z,1599075000,2020,19,30,246.8125,246.8125,88.4855,118.488,-999.00,-999.00,-999.0,no,no,no,300534061800900,unknown,unknown,unknown,North
2020-09-02T19:59:57Z,1599076797,2020,20,0,246.8333,246.8333,88.4883,118.5406,-999.00,-999.00,-999.0,no,no,no,300534061800900,unknown,unknown,unknown,North
2020-09-02T20:30:02Z,1599078603,2020,20,30,246.8542,246.8542,88.491,118.5826,-999.00,-999.00,-999.0,no,no,no,300534061800900,unknown,unknown,unknown,North
2020-09-02T21:00:00Z,1599080400,2020,21,0,246.875,246.875,88.4938,118.6196,-999.00,-999.00,-999.0,no,no,no,300534061800900,unknown,unknown,unknown,North
2020-09-02T21:29:57Z,1599082197,2020,21,30,246.8958,246.8958,88.4968,118.6504,-999.00,-999.00,-999.0,no,no,no,300534061800900,unknown,unknown,unknown,North
2020-09-02T22:00:02Z,1599084003,2020,22,0,246.9167,246.9167,88.5,118.6804,-999.00,-999.00,-999.0,no,no,no,300534061800900,unknown,unknown,unknown,North
2020-09-02T22:30:00Z,1599085800,2020,22,30,246.9375,246.9375,88.5032,118.7109,-999.00,-999.00,-999.0,no,no,no,300534061800900,unknown,unknown,unknown,North
2020-09-02T22:59:57Z,1599087597,2020,23,0,246.9583,246.9583,88.5065,118.7397,-999.00,-999.00,-999.0,no,no,no,300534061800900,unknown,unknown,unknown,North
2020-09-02T23:30:02Z,1599089403,2020,23,30,246.9792,246.9792,88.5099,118.7676,-999.00,-999.00,-999.0,no,no,no,300534061800900,unknown,unknown,unknown,North
2020-09-03T00:00:00Z,1599091200,2020,0,0,247.0,247.0,88.5135,118.7959,-999.00,-999.00,-999.0,no,no,no,300534061800900,unknown,unknown,unknown,North
2020-09-03T00:29:57Z,1599092997,2020,0,30,247.0208,247.0208,88.517,118.826,-999.00,-999.00,-999.0,no,no,no,300534061800900,unknown,unknown,unknown,North
2020-09-03T01:00:02Z,1599094803,2020,1,0,247.0417,247.0417,88.5206,118.86,-999.00,-999.00,-999.0,no,no,no,300534061800900,unknown,unknown,unknown,North
2020-09-03T01:30:00Z,1599096600,2020,1,30,247.0625,247.0625,88.5243,118.8976,-999.00,-999.00,-999.0,no,no,no,300534061800900,unknown,unknown,unknown,North
2020-09-03T01:59:57Z,1599098397,2020,2,0,247.0833,247.0833,88.528,118.9433,-999.00,-999.00,-999.0,no,no,no,300534061800900,unknown,unknown,unknown,North
2020-09-03T02:30:02Z,1599100203,2020,2,30,247.1042,247.1042,88.5318,118.9913,-999.00,-999.00,-999.0,no,no,no,300534061800900,unknown,unknown,unknown,North
2020-09-03T03:00:00Z,1599102000,2020,3,0,247.125,247.125,88.5356,119.0456,-999.00,-999.00,-999.0,no,no,no,300534061800900,unknown,unknown,unknown,North
2020-09-03T03:29:57Z,1599103797,2020,3,30,247.1458,247.1458,88.5393,119.1076,-999.00,-999.00,-999.0,no,no,no,300534061800900,unknown,unknown,unknown,North
2020-09-03T04:00:02Z,1599105603,2020,4,0,247.1667,247.1667,88.543,119.1735,-999.00,-999.00,-999.0,no,no,no,300534061800900,unknown,unknown,unknown,North
2020-09-03T04:30:00Z,1599107400,2020,4,30,247.1875,247.1875,88.5467,119.2448,-999.00,-999.00,-999.0,no,no,no,300534061800900,unknown,unknown,unknown,North
2020-09-03T04:59:57Z,1599109197,2020,5,0,247.2083,247.2083,88.5502,119.3194,-999.00,-999.00,-999.0,no,no,no,300534061800900,unknown,unknown,unknown,North
2020-09-03T05:30:02Z,1599111003,2020,5,30,247.2292,247.2292,88.5537,119.3899,-999.00,-999.00,-999.0,no,no,no,300534061800900,unknown,unknown,unknown,North
2020-09-03T06:00:00Z,1599112800,2020,6,0,247.25,247.25,88.5571,119.4623,-999.00,-999.00,-999.0,no,no,no,300534061800900,unknown,unknown,unknown,North
2020-09-03T06:29:57Z,1599114597,2020,6,30,247.2708,247.2708,88.5604,119.5311,-999.00,-999.00,-999.0,no,no,no,300534061800900,unknown,unknown,unknown,North
2020-09-03T07:00:02Z,1599116403,2020,7,0,247.2917,247.2917,88.5637,119.596,-999.00,-999.00,-999.0,no,no,no,300534061800900,unknown,unknown,unknown,North
2020-09-03T07:30:00Z,1599118200,2020,7,30,247.3125,247.3125,88.5669,119.6555,-999.00,-999.00,-999.0,no,no,no,300534061800900,unknown,unknown,unknown,North
2020-09-03T07:59:57Z,1599119997,2020,8,0,247.3333,247.3333,88.5699,119.7088,-999.00,-999.00,-999.0,no,no,no,300534061800900,unknown,unknown,unknown,North
2020-09-03T08:30:02Z,1599121803,2020,8,30,247.3542,247.3542,88.5729,119.7562,-999.00,-999.00,-999.0,no,no,no,300534061800900,unknown,unknown,unknown,North
2020-09-03T09:00:00Z,1599123600,2020,9,0,247.375,247.375,88.5758,119.7973,-999.00,-999.00,-999.0,no,no,no,300534061800900,unknown,unknown,unknown,North
2020-09-03T09:29:57Z,1599125397,2020,9,30,247.3958,247.3958,88.5789,119.8307,-999.00,-999.00,-999.0,no,no,no,300534061800900,unknown,unknown,unknown,North
2020-09-03T10:00:02Z,1599127203,2020,10,0,247.4167,247.4167,88.5819,119.8543,-999.00,-999.00,-999.0,no,no,no,300534061800900,unknown,unknown,unknown,North
2020-09-03T10:30:00Z,1599129000,2020,10,30,247.4375,247.4375,88.5851,119.8732,-999.00,-999.00,-999.0,no,no,no,300534061800900,unknown,unknown,unknown,North
2020-09-03T10:59:57Z,1599130797,2020,11,0,247.4583,247.4583,88.5883,119.8874,-999.00,-999.00,-999.0,no,no,no,300534061800900,unknown,unknown,unknown,North
2020-09-03T11:30:02Z,1599132603,2020,11,30,247.4792,247.4792,88.5916,119.8989,-999.00,-999.00,-999.0,no,no,no,300534061800900,unknown,unknown,unknown,North
2020-09-03T12:00:00Z,1599134400,2020,12,0,247.5,247.5,88.595,119.9106,-999.00,-999.00,-999.0,no,no,no,300534061800900,unknown,unknown,unknown,North
2020-09-03T12:29:57Z,1599136197,2020,12,30,247.5208,247.5208,88.5985,119.9225,-999.00,-999.00,-999.0,no,no,no,300534061800900,unknown,unknown,unknown,North
2020-09-03T13:00:02Z,1599138003,2020,13,0,247.5417,247.5417,88.602,119.936,-999.00,-999.00,-999.0,no,no,no,300534061800900,unknown,unknown,unknown,North
2020-09-03T13:30:00Z,1599139800,2020,13,30,247.5625,247.5625,88.6057,119.9452,-999.00,-999.00,-999.0,no,no,no,300534061800900,unknown,unknown,unknown,North
2020-09-03T13:59:57Z,1599141597,2020,14,0,247.5833,247.5833,88.6094,119.956,-999.00,-999.00,-999.0,no,no,no,300534061800900,unknown,unknown,unknown,North
2020-09-03T14:30:02Z,1599143403,2020,14,30,247.6042,247.6042,88.613,119.9689,-999.00,-999.00,-999.0,no,no,no,300534061800900,unknown,unknown,unknown,North
2020-09-03T15:00:00Z,1599145200,2020,15,0,247.625,247.625,88.6167,119.985,-999.00,-999.00,-999.0,no,no,no,300534061800900,unknown,unknown,unknown,North
2020-09-03T15:29:57Z,1599146997,2020,15,30,247.6458,247.6458,88.6205,120.0058,-999.00,-999.00,-999.0,no,no,no,300534061800900,unknown,unknown,unknown,North
2020-09-03T16:00:02Z,1599148803,2020,16,0,247.6667,247.6667,88.6242,120.0308,-999.00,-999.00,-999.0,no,no,no,300534061800900,unknown,unknown,unknown,North
2020-09-03T16:30:00Z,1599150600,2020,16,30,247.6875,247.6875,88.628,120.0631,-999.00,-999.00,-999.0,no,no,no,300534061800900,unknown,unknown,unknown,North
2020-09-03T16:59:57Z,1599152397,2020,17,0,247.7083,247.7083,88.6319,120.1036,-999.00,-999.00,-999.0,no,no,no,300534061800900,unknown,unknown,unknown,North
2020-09-03T17:30:02Z,1599154203,2020,17,30,247.7292,247.7292,88.6357,120.1514,-999.00,-999.00,-999.0,no,no,no,300534061800900,unknown,unknown,unknown,North
2020-09-03T18:00:00Z,1599156000,2020,18,0,247.75,247.75,88.6394,120.2035,-999.00,-999.00,-999.0,no,no,no,300534061800900,unknown,unknown,unknown,North
2020-09-03T18:29:57Z,1599157797,2020,18,30,247.7708,247.7708,88.6429,120.2534,-999.00,-999.00,-999.0,no,no,no,300534061800900,unknown,unknown,unknown,North
2020-09-03T19:00:02Z,1599159603,2020,19,0,247.7917,247.7917,88.6462,120.3018,-999.00,-999.00,-999.0,no,no,no,300534061800900,unknown,unknown,unknown,North
2020-09-03T19:30:00Z,1599161400,2020,19,30,247.8125,247.8125,88.6493,120.3449,-999.00,-999.00,-999.0,no,no,no,300534061800900,unknown,unknown,unknown,North
2020-09-03T19:59:57Z,1599163197,2020,20,0,247.8333,247.8333,88.6522,120.3847,-999.00,-999.00,-999.0,no,no,no,300534061800900,unknown,unknown,unknown,North
2020-09-03T20:30:02Z,1599165003,2020,20,30,247.8542,247.8542,88.655,120.4169,-999.00,-999.00,-999.0,no,no,no,300534061800900,unknown,unknown,unknown,North
2020-09-03T21:00:00Z,1599166800,2020,21,0,247.875,247.875,88.6576,120.442,-999.00,-999.00,-999.0,no,no,no,300534061800900,unknown,unknown,unknown,North
2020-09-03T21:29:57Z,1599168597,2020,21,30,247.8958,247.8958,88.6601,120.4619,-999.00,-999.00,-999.0,no,no,no,300534061800900,unknown,unknown,unknown,North
2020-09-03T22:00:02Z,1599170403,2020,22,0,247.9167,247.9167,88.6624,120.475,-999.00,-999.00,-999.0,no,no,no,300534061800900,unknown,unknown,unknown,North
2020-09-03T22:30:00Z,1599172200,2020,22,30,247.9375,247.9375,88.6645,120.478,-999.00,-999.00,-999.0,no,no,no,300534061800900,unknown,unknown,unknown,North
2020-09-03T22:59:57Z,1599173997,2020,23,0,247.9583,247.9583,88.6667,120.4728,-999.00,-999.00,-999.0,no,no,no,300534061800900,unknown,unknown,unknown,North
2020-09-03T23:30:02Z,1599175803,2020,23,30,247.9792,247.9792,88.6687,120.4577,-999.00,-999.00,-999.0,no,no,no,300534061800900,unknown,unknown,unknown,North
2020-09-04T00:00:00Z,1599177600,2020,0,0,248.0,248.0,88.6709,120.437,-999.00,-999.00,-999.0,no,no,no,300534061800900,unknown,unknown,unknown,North
2020-09-04T00:29:57Z,1599179397,2020,0,30,248.0208,248.0208,88.6731,120.415,-999.00,-999.00,-999.0,no,no,no,300534061800900,unknown,unknown,unknown,North
2020-09-04T01:00:02Z,1599181203,2020,1,0,248.0417,248.0417,88.6754,120.3967,-999.00,-999.00,-999.0,no,no,no,300534061800900,unknown,unknown,unknown,North
2020-09-04T01:30:00Z,1599183000,2020,1,30,248.0625,248.0625,88.6778,120.3816,-999.00,-999.00,-999.0,no,no,no,300534061800900,unknown,unknown,unknown,North
2020-09-04T01:59:57Z,1599184797,2020,2,0,248.0833,248.0833,88.6803,120.3759,-999.00,-999.00,-999.0,no,no,no,300534061800900,unknown,unknown,unknown,North
2020-09-04T02:30:02Z,1599186603,2020,2,30,248.1042,248.1042,88.6829,120.3767,-999.00,-999.00,-999.0,no,no,no,300534061800900,unknown,unknown,unknown,North
2020-09-04T03:00:00Z,1599188400,2020,3,0,248.125,248.125,88.6856,120.3869,-999.00,-999.00,-999.0,no,no,no,300534061800900,unknown,unknown,unknown,North
2020-09-04T03:29:57Z,1599190197,2020,3,30,248.1458,248.1458,88.6882,120.4053,-999.00,-999.00,-999.0,no,no,no,300534061800900,unknown,unknown,unknown,North
2020-09-04T04:00:02Z,1599192003,2020,4,0,248.1667,248.1667,88.6908,120.4316,-999.00,-999.00,-999.0,no,no,no,300534061800900,unknown,unknown,unknown,North
2020-09-04T04:30:00Z,1599193800,2020,4,30,248.1875,248.1875,88.6933,120.4651,-999.00,-999.00,-999.0,no,no,no,300534061800900,unknown,unknown,unknown,North
2020-09-04T04:59:57Z,1599195597,2020,5,0,248.2083,248.2083,88.6956,120.5034,-999.00,-999.00,-999.0,no,no,no,300534061800900,unknown,unknown,unknown,North
2020-09-04T05:30:02Z,1599197403,2020,5,30,248.2292,248.2292,88.6976,120.54,-999.00,-999.00,-999.0,no,no,no,300534061800900,unknown,unknown,unknown,North
2020-09-04T06:00:00Z,1599199200,2020,6,0,248.25,248.25,88.6993,120.5706,-999.00,-999.00,-999.0,no,no,no,300534061800900,unknown,unknown,unknown,North
2020-09-04T06:29:57Z,1599200997,2020,6,30,248.2708,248.2708,88.701,120.5957,-999.00,-999.00,-999.0,no,no,no,300534061800900,unknown,unknown,unknown,North
2020-09-04T07:00:02Z,1599202803,2020,7,0,248.2917,248.2917,88.7027,120.6174,-999.00,-999.00,-999.0,no,no,no,300534061800900,unknown,unknown,unknown,North
2020-09-04T07:30:00Z,1599204600,2020,7,30,248.3125,248.3125,88.7045,120.6268,-999.00,-999.00,-999.0,no,no,no,300534061800900,unknown,unknown,unknown,North
2020-09-04T07:59:57Z,1599206397,2020,8,0,248.3333,248.3333,88.7061,120.6316,-999.00,-999.00,-999.0,no,no,no,300534061800900,unknown,unknown,unknown,North
2020-09-04T08:30:02Z,1599208203,2020,8,30,248.3542,248.3542,88.7078,120.6295,-999.00,-999.00,-999.0,no,no,no,300534061800900,unknown,unknown,unknown,North
2020-09-04T09:00:00Z,1599210000,2020,9,0,248.375,248.375,88.7094,120.6209,-999.00,-999.00,-999.0,no,no,no,300534061800900,unknown,unknown,unknown,North
2020-09-04T09:29:57Z,1599211797,2020,9,30,248.3958,248.3958,88.7111,120.6014,-999.00,-999.00,-999.0,no,no,no,300534061800900,unknown,unknown,unknown,North
2020-09-04T10:00:02Z,1599213603,2020,10,0,248.4167,248.4167,88.7129,120.5732,-999.00,-999.00,-999.0,no,no,no,300534061800900,unknown,unknown,unknown,North
2020-09-04T10:30:00Z,1599215400,2020,10,30,248.4375,248.4375,88.7147,120.5378,-999.00,-999.00,-999.0,no,no,no,300534061800900,unknown,unknown,unknown,North
2020-09-04T10:59:57Z,1599217197,2020,11,0,248.4583,248.4583,88.7165,120.4973,-999.00,-999.00,-999.0,no,no,no,300534061800900,unknown,unknown,unknown,North
2020-09-04T11:30:02Z,1599219003,2020,11,30,248.4792,248.4792,88.7182,120.4565,-999.00,-999.00,-999.0,no,no,no,300534061800900,unknown,unknown,unknown,North
2020-09-04T12:00:00Z,1599220800,2020,12,0,248.5,248.5,88.7201,120.4086,-999.00,-999.00,-999.0,no,no,no,300534061800900,unknown,unknown,unknown,North
2020-09-04T12:29:57Z,1599222597,2020,12,30,248.5208,248.5208,88.7219,120.3577,-999.00,-999.00,-999.0,no,no,no,300534061800900,unknown,unknown,unknown,North
2020-09-04T13:00:02Z,1599224403,2020,13,0,248.5417,248.5417,88.7238,120.3084,-999.00,-999.00,-999.0,no,no,no,300534061800900,unknown,unknown,unknown,North
2020-09-04T13:30:00Z,1599226200,2020,13,30,248.5625,248.5625,88.7257,120.2613,-999.00,-999.00,-999.0,no,no,no,300534061800900,unknown,unknown,unknown,North
2020-09-04T13:59:57Z,1599227997,2020,14,0,248.5833,248.5833,88.7277,120.2149,-999.00,-999.00,-999.0,no,no,no,300534061800900,unknown,unknown,unknown,North
2020-09-04T14:30:02Z,1599229803,2020,14,30,248.6042,248.6042,88.7297,120.1719,-999.00,-999.00,-999.0,no,no,no,300534061800900,unknown,unknown,unknown,North
2020-09-04T15:00:00Z,1599231600,2020,15,0,248.625,248.625,88.7316,120.1347,-999.00,-999.00,-999.0,no,no,no,300534061800900,unknown,unknown,unknown,North
2020-09-04T15:29:57Z,1599233397,2020,15,30,248.6458,248.6458,88.7335,120.0979,-999.00,-999.00,-999.0,no,no,no,300534061800900,unknown,unknown,unknown,North
2020-09-04T16:00:02Z,1599235203,2020,16,0,248.6667,248.6667,88.7353,120.0617,-999.00,-999.00,-999.0,no,no,no,300534061800900,unknown,unknown,unknown,North
2020-09-04T16:30:00Z,1599237000,2020,16,30,248.6875,248.6875,88.7371,120.0268,-999.00,-999.00,-999.0,no,no,no,300534061800900,unknown,unknown,unknown,North
2020-09-04T16:59:57Z,1599238797,2020,17,0,248.7083,248.7083,88.7387,119.9954,-999.00,-999.00,-999.0,no,no,no,300534061800900,unknown,unknown,unknown,North
2020-09-04T17:30:02Z,1599240603,2020,17,30,248.7292,248.7292,88.7401,119.9691,-999.00,-999.00,-999.0,no,no,no,300534061800900,unknown,unknown,unknown,North
2020-09-04T18:00:00Z,1599242400,2020,18,0,248.75,248.75,88.7412,119.9409,-999.00,-999.00,-999.0,no,no,no,300534061800900,unknown,unknown,unknown,North
2020-09-04T18:29:57Z,1599244197,2020,18,30,248.7708,248.7708,88.7421,119.9091,-999.00,-999.00,-999.0,no,no,no,300534061800900,unknown,unknown,unknown,North
2020-09-04T19:00:02Z,1599246003,2020,19,0,248.7917,248.7917,88.7428,119.8744,-999.00,-999.00,-999.0,no,no,no,300534061800900,unknown,unknown,unknown,North
2020-09-04T19:30:00Z,1599247800,2020,19,30,248.8125,248.8125,88.7434,119.8355,-999.00,-999.00,-999.0,no,no,no,300534061800900,unknown,unknown,unknown,North
2020-09-04T19:59:57Z,1599249597,2020,20,0,248.8333,248.8333,88.7437,119.795,-999.00,-999.00,-999.0,no,no,no,300534061800900,unknown,unknown,unknown,North
2020-09-04T20:30:02Z,1599251403,2020,20,30,248.8542,248.8542,88.744,119.7522,-999.00,-999.00,-999.0,no,no,no,300534061800900,unknown,unknown,unknown,North
2020-09-04T21:00:00Z,1599253200,2020,21,0,248.875,248.875,88.7441,119.7067,-999.00,-999.00,-999.0,no,no,no,300534061800900,unknown,unknown,unknown,North
2020-09-04T21:29:57Z,1599254997,2020,21,30,248.8958,248.8958,88.7442,119.6599,-999.00,-999.00,-999.0,no,no,no,300534061800900,unknown,unknown,unknown,North
2020-09-04T22:00:02Z,1599256803,2020,22,0,248.9167,248.9167,88.7442,119.6136,-999.00,-999.00,-999.0,no,no,no,300534061800900,unknown,unknown,unknown,North
2020-09-04T22:30:00Z,1599258600,2020,22,30,248.9375,248.9375,88.7442,119.5642,-999.00,-999.00,-999.0,no,no,no,300534061800900,unknown,unknown,unknown,North
2020-09-04T22:59:57Z,1599260397,2020,23,0,248.9583,248.9583,88.7442,119.513,-999.00,-999.00,-999.0,no,no,no,300534061800900,unknown,unknown,unknown,North
2020-09-04T23:30:02Z,1599262203,2020,23,30,248.9792,248.9792,88.7441,119.464,-999.00,-999.00,-999.0,no,no,no,300534061800900,unknown,unknown,unknown,North
2020-09-05T00:00:00Z,1599264000,2020,0,0,249.0,249.0,88.7442,119.4168,-999.00,-999.00,-999.0,no,no,no,300534061800900,unknown,unknown,unknown,North
2020-09-05T00:29:57Z,1599265797,2020,0,30,249.0208,249.0208,88.7443,119.3741,-999.00,-999.00,-999.0,no,no,no,300534061800900,unknown,unknown,unknown,North
2020-09-05T01:00:02Z,1599267603,2020,1,0,249.0417,249.0417,88.7444,119.3364,-999.00,-999.00,-999.0,no,no,no,300534061800900,unknown,unknown,unknown,North
2020-09-05T01:30:00Z,1599269400,2020,1,30,249.0625,249.0625,88.7446,119.306,-999.00,-999.00,-999.0,no,no,no,300534061800900,unknown,unknown,unknown,North
2020-09-05T01:59:57Z,1599271197,2020,2,0,249.0833,249.0833,88.7448,119.2787,-999.00,-999.00,-999.0,no,no,no,300534061800900,unknown,unknown,unknown,North
2020-09-05T02:30:02Z,1599273003,2020,2,30,249.1042,249.1042,88.745,119.2585,-999.00,-999.00,-999.0,no,no,no,300534061800900,unknown,unknown,unknown,North
2020-09-05T03:00:00Z,1599274800,2020,3,0,249.125,249.125,88.7451,119.2421,-999.00,-999.00,-999.0,no,no,no,300534061800900,unknown,unknown,unknown,North
2020-09-05T03:29:57Z,1599276597,2020,3,30,249.1458,249.1458,88.7453,119.2316,-999.00,-999.00,-999.0,no,no,no,300534061800900,unknown,unknown,unknown,North
2020-09-05T04:00:02Z,1599278403,2020,4,0,249.1667,249.1667,88.7454,119.2292,-999.00,-999.00,-999.0,no,no,no,300534061800900,unknown,unknown,unknown,North
2020-09-05T04:30:00Z,1599280200,2020,4,30,249.1875,249.1875,88.7455,119.234,-999.00,-999.00,-999.0,no,no,no,300534061800900,unknown,unknown,unknown,North
2020-09-05T04:59:57Z,1599281997,2020,5,0,249.2083,249.2083,88.7454,119.2415,-999.00,-999.00,-999.0,no,no,no,300534061800900,unknown,unknown,unknown,North
2020-09-05T05:30:02Z,1599283803,2020,5,30,249.2292,249.2292,88.7453,119.2485,-999.00,-999.00,-999.0,no,no,no,300534061800900,unknown,unknown,unknown,North
2020-09-05T06:00:00Z,1599285600,2020,6,0,249.25,249.25,88.745,119.2598,-999.00,-999.00,-999.0,no,no,no,300534061800900,unknown,unknown,unknown,North
2020-09-05T06:29:57Z,1599287397,2020,6,30,249.2708,249.2708,88.7447,119.2691,-999.00,-999.00,-999.0,no,no,no,300534061800900,unknown,unknown,unknown,North
2020-09-05T07:00:02Z,1599289203,2020,7,0,249.2917,249.2917,88.7443,119.2755,-999.00,-999.00,-999.0,no,no,no,300534061800900,unknown,unknown,unknown,North
2020-09-05T07:30:00Z,1599291000,2020,7,30,249.3125,249.3125,88.7438,119.2761,-999.00,-999.00,-999.0,no,no,no,300534061800900,unknown,unknown,unknown,North
2020-09-05T07:59:57Z,1599292797,2020,8,0,249.3333,249.3333,88.7433,119.2695,-999.00,-999.00,-999.0,no,no,no,300534061800900,unknown,unknown,unknown,North
2020-09-05T08:30:02Z,1599294603,2020,8,30,249.3542,249.3542,88.7429,119.2553,-999.00,-999.00,-999.0,no,no,no,300534061800900,unknown,unknown,unknown,North
2020-09-05T09:00:00Z,1599296400,2020,9,0,249.375,249.375,88.7424,119.2328,-999.00,-999.00,-999.0,no,no,no,300534061800900,unknown,unknown,unknown,North
2020-09-05T09:29:57Z,1599298197,2020,9,30,249.3958,249.3958,88.742,119.2054,-999.00,-999.00,-999.0,no,no,no,300534061800900,unknown,unknown,unknown,North
2020-09-05T10:00:02Z,1599300003,2020,10,0,249.4167,249.4167,88.7418,119.1735,-999.00,-999.00,-999.0,no,no,no,300534061800900,unknown,unknown,unknown,North
2020-09-05T10:30:00Z,1599301800,2020,10,30,249.4375,249.4375,88.7416,119.1408,-999.00,-999.00,-999.0,no,no,no,300534061800900,unknown,unknown,unknown,North
2020-09-05T10:59:57Z,1599303597,2020,11,0,249.4583,249.4583,88.7415,119.1018,-999.00,-999.00,-999.0,no,no,no,300534061800900,unknown,unknown,unknown,North
2020-09-05T11:30:02Z,1599305403,2020,11,30,249.4792,249.4792,88.7415,119.0616,-999.00,-999.00,-999.0,no,no,no,300534061800900,unknown,unknown,unknown,North
2020-09-05T12:00:00Z,1599307200,2020,12,0,249.5,249.5,88.7414,119.0343,-999.00,-999.00,-999.0,no,no,no,300534061800900,unknown,unknown,unknown,North
2020-09-05T12:29:57Z,1599308997,2020,12,30,249.5208,249.5208,88.7412,119.0198,-999.00,-999.00,-999.0,no,no,no,300534061800900,unknown,unknown,unknown,North
2020-09-05T13:00:02Z,1599310803,2020,13,0,249.5417,249.5417,88.741,119.0167,-999.00,-999.00,-999.0,no,no,no,300534061800900,unknown,unknown,unknown,North
2020-09-05T13:30:00Z,1599312600,2020,13,30,249.5625,249.5625,88.7406,119.0144,-999.00,-999.00,-999.0,no,no,no,300534061800900,unknown,unknown,unknown,North
2020-09-05T13:59:57Z,1599314397,2020,14,0,249.5833,249.5833,88.7402,119.0114,-999.00,-999.00,-999.0,no,no,no,300534061800900,unknown,unknown,unknown,North
2020-09-05T14:30:02Z,1599316203,2020,14,30,249.6042,249.6042,88.7396,119.0106,-999.00,-999.00,-999.0,no,no,no,300534061800900,unknown,unknown,unknown,North
2020-09-05T15:00:00Z,1599318000,2020,15,0,249.625,249.625,88.7391,119.0122,-999.00,-999.00,-999.0,no,no,no,300534061800900,unknown,unknown,unknown,North
2020-09-05T15:29:57Z,1599319797,2020,15,30,249.6458,249.6458,88.7384,119.0171,-999.00,-999.00,-999.0,no,no,no,300534061800900,unknown,unknown,unknown,North
2020-09-05T16:00:02Z,1599321603,2020,16,0,249.6667,249.6667,88.7377,119.0242,-999.00,-999.00,-999.0,no,no,no,300534061800900,unknown,unknown,unknown,North
2020-09-05T16:30:00Z,1599323400,2020,16,30,249.6875,249.6875,88.737,119.0313,-999.00,-999.00,-999.0,no,no,no,300534061800900,unknown,unknown,unknown,North